Alcoa, TN

2:11 AM EST on December 09, 2016 (GMT -0500)
McGhee Tyson

Weather History for KTYS - March, 2013

Change the Weather History Date:

Monday, March 4, 2013

  Actual Average Record
Temperature  
Mean Temperature 35 °F 47 °F  
Max Temperature 50 °F 58 °F 82 °F (1976)
Min Temperature 20 °F 36 °F 5 °F (1873)
Degree Days  
Heating Degree Days 30 18  
Month to date heating degree days 119 74  
Since 1 July heating degree days 2811 2970  
Cooling Degree Days 0 0  
Month to date cooling degree days 0 0  
Year to date cooling degree days 2 0  
Moisture  
Dew Point 18 °F    
Average Humidity 52    
Maximum Humidity 81    
Minimum Humidity 23    
Precipitation  
Precipitation 0.00 in 0.14 in 1.51 in (1917)
Month to date precipitation 0.15 0.57  
Year to date precipitation 15.24 9.15  
Snow  
Snow 0.00 in 0.00 in - ()
Month to date snowfall 0.8 0.1  
Since 1 July snowfall 3.4 5.2  
Snow Depth 0.00 in    
Sea Level Pressure  
Sea Level Pressure 30.12 in    
Wind  
Wind Speed 2 mph (North)    
Max Wind Speed 8 mph    
Max Gust Speed 10 mph    
Visibility 10 miles    
Events      
T = Trace of Precipitation, MM = Missing Value Source: NWS Daily Summary

Daily Weather History Graph

Daily Weather History Graph

Search for Another Location

Airport or City:

Trip Planner

Search our weather history database for the weather conditions in past years. The results will help you decide how hot, cold, wet, or windy it might be!

Date:

Astronomy

Mar. 04, 2013 Rise Set
Actual Time 7:01 AM EST 6:34 PM EST
Civil Twilight 6:36 AM EST 6:59 PM EST
Nautical Twilight 6:06 AM EST 7:29 PM EST
Astronomical Twilight 5:36 AM EST 7:58 PM EST
Moon 1:02 AM EST (3/4) 11:23 AM EST (3/4)
Length of Visible Light 12h 23m
Length of Day
11h 32m
Waning Gibbous, 52% of the Moon is Illuminated
Mar 4
Waning Gibbous
Mar 4
Last Quarter
Mar 11
New
Mar 19
First Quarter
Mar 27
Full

Hourly Weather History & Observations

Time (EST) Temp. Windchill Dew Point Humidity Pressure Visibility Wind Dir Wind Speed Gust Speed Precip Events Conditions
12:53 AM 26.1 °F - 17.1 °F 69% 30.12 in 10.0 mi Calm Calm - N/A   Clear
1:53 AM 24.1 °F 19.7 °F 17.1 °F 75% 30.14 in 10.0 mi SW 3.5 mph - N/A   Clear
2:53 AM 25.0 °F - 18.0 °F 75% 30.14 in 10.0 mi Calm Calm - N/A   Clear
3:53 AM 24.1 °F - 17.1 °F 75% 30.14 in 10.0 mi Calm Calm - N/A   Clear
4:53 AM 24.1 °F - 17.1 °F 75% 30.16 in 10.0 mi Calm Calm - N/A   Clear
5:53 AM 23.0 °F - 17.1 °F 78% 30.18 in 10.0 mi Calm Calm - N/A   Clear
6:53 AM 24.1 °F - 17.1 °F 75% 30.19 in 10.0 mi Calm Calm - N/A   Partly Cloudy
7:53 AM 25.0 °F - 19.0 °F 78% 30.20 in 10.0 mi Calm Calm - N/A   Partly Cloudy
8:53 AM 28.9 °F - 21.0 °F 72% 30.20 in 10.0 mi Calm Calm - N/A   Partly Cloudy
9:53 AM 34.0 °F 29.8 °F 23.0 °F 64% 30.19 in 10.0 mi ENE 4.6 mph - N/A   Clear
10:53 AM 39.0 °F - 15.1 °F 38% 30.19 in 10.0 mi Calm Calm - N/A   Partly Cloudy
11:53 AM 44.1 °F 42.5 °F 16.0 °F 32% 30.17 in 10.0 mi Variable 3.5 mph - N/A   Partly Cloudy
12:53 PM 46.0 °F - 12.9 °F 26% 30.14 in 10.0 mi Calm Calm - N/A   Scattered Clouds
1:53 PM 46.9 °F - 10.9 °F 23% 30.09 in 10.0 mi Calm Calm - N/A   Partly Cloudy
2:53 PM 48.0 °F - 12.0 °F 24% 30.07 in 10.0 mi SW 3.5 mph - N/A   Scattered Clouds
3:53 PM 48.9 °F - 15.1 °F 26% 30.07 in 10.0 mi Calm Calm - N/A   Scattered Clouds
4:53 PM 50.0 °F - 17.1 °F 27% 30.05 in 10.0 mi Calm Calm - N/A   Scattered Clouds
5:53 PM 48.9 °F - 19.0 °F 31% 30.04 in 10.0 mi North 3.5 mph - N/A   Partly Cloudy
6:53 PM 45.0 °F 42.6 °F 19.0 °F 36% 30.03 in 10.0 mi North 4.6 mph - N/A   Partly Cloudy
7:53 PM 43.0 °F 39.5 °F 21.9 °F 43% 30.01 in 10.0 mi ENE 5.8 mph - N/A   Clear
8:53 PM 45.0 °F 43.5 °F 19.9 °F 37% 30.02 in 10.0 mi North 3.5 mph - N/A   Partly Cloudy
9:53 PM 44.1 °F 41.5 °F 21.9 °F 42% 30.02 in 10.0 mi North 4.6 mph - N/A   Partly Cloudy
10:53 PM 43.0 °F 41.3 °F 21.0 °F 42% 30.05 in 10.0 mi North 3.5 mph - N/A   Partly Cloudy
11:53 PM 41.0 °F 38.0 °F 25.0 °F 53% 30.04 in 10.0 mi NE 4.6 mph - N/A   Partly Cloudy